Find Local Weather

World > North America > United States > Ohio

Catawba Island, Ohio Regional Weather

Lat: 41.59N, Lon: 82.84W
Wx Zone: OHZ007
Warning FLW WEATHER ALERT - (More Info. Click Here) Warning
Feedback

Catawba Island, OH Regional Weather

Expires:201905242100;;398732
ASUS41 KCLE 242012
RWRCLE
OHIO REGIONAL WEATHER ROUNDUP
NATIONAL WEATHER SERVICE WILMINGTON, OH
400 PM EDT FRI MAY 24 2019

NOTE: "FAIR" INDICATES FEW OR NO CLOUDS BELOW 12,000 FEET WITH NO
SIGNIFICANT WEATHER AND/OR OBSTRUCTIONS TO VISIBILITY.


OHZ001>008-015>018-024>027-034-035-043-044-242100-
   NORTHWEST OHIO
  
CITY           SKY/WX    TMP DP  RH WIND       PRES   REMARKS
DEFIANCE       CLOUDY    72  54  53 CALM      30.14R                  
FINDLAY        CLOUDY    75  55  49 CALM      30.13R                  
TOLEDO EXPRESS CLOUDY    70  53  54 CALM      30.16R                  
TOLEDO EXEC    CLOUDY    70  55  59 NE7       30.16R                  
LIMA           CLOUDY    73  59  61 S7        30.13S                  
$$
 

SKY/WX - Weather  TMP - Temperature  DP - Dew Point  RH - Relative Humidity
WIND - Wind Direction/Speed PRES - Barometric Pressure VSB - Visibility
WCI - Wind Chill Index E13G22 Wind - East Wind 13 mph/Gusts of 22 mph